Year,Month,Day,Hour,Minute,Value (Times are PST for temperature in C)
2015,04,22,00,00,4.90
2015,04,22,00,01,4.90
2015,04,22,00,02,4.90
2015,04,22,00,03,4.90
2015,04,22,00,04,4.90
2015,04,22,00,05,4.80
2015,04,22,00,06,4.80
2015,04,22,00,07,4.80
2015,04,22,00,08,4.80
2015,04,22,00,09,4.80
2015,04,22,00,10,4.80
2015,04,22,00,11,4.80
2015,04,22,00,12,4.80
2015,04,22,00,13,4.70
2015,04,22,00,14,4.70
2015,04,22,00,15,4.70
2015,04,22,00,16,4.70
2015,04,22,00,17,4.70
2015,04,22,00,18,4.70
2015,04,22,00,19,4.70
2015,04,22,00,20,4.70
2015,04,22,00,21,4.70
2015,04,22,00,22,4.70
2015,04,22,00,23,4.70
2015,04,22,00,24,4.70
2015,04,22,00,25,4.60
2015,04,22,00,26,4.60
2015,04,22,00,27,4.60
2015,04,22,00,28,4.50
2015,04,22,00,29,4.50
2015,04,22,00,30,4.50
2015,04,22,00,31,4.40
2015,04,22,00,32,4.40
2015,04,22,00,33,4.40
2015,04,22,00,34,4.40
2015,04,22,00,35,4.30
2015,04,22,00,36,4.30
2015,04,22,00,37,4.30
2015,04,22,00,38,4.30
2015,04,22,00,39,4.30
2015,04,22,00,40,4.30
2015,04,22,00,41,4.20
2015,04,22,00,42,4.20
2015,04,22,00,43,4.20
2015,04,22,00,44,4.20
2015,04,22,00,45,4.20
2015,04,22,00,46,4.20
2015,04,22,00,47,4.10
2015,04,22,00,48,4.10
2015,04,22,00,49,4.10
2015,04,22,00,50,4.10
2015,04,22,00,51,4.10
2015,04,22,00,52,4.10
2015,04,22,00,53,4.20
2015,04,22,00,54,4.20
2015,04,22,00,55,4.20
2015,04,22,00,56,4.20
2015,04,22,00,57,4.20
2015,04,22,00,58,4.20
2015,04,22,00,59,4.20
2015,04,22,01,00,4.20
2015,04,22,01,01,4.20
2015,04,22,01,02,4.20
2015,04,22,01,03,4.20
2015,04,22,01,04,4.20
2015,04,22,01,05,4.20
2015,04,22,01,06,4.20
2015,04,22,01,07,4.20
2015,04,22,01,08,4.20
2015,04,22,01,09,4.20
2015,04,22,01,10,4.20
2015,04,22,01,11,4.20
2015,04,22,01,12,4.20
2015,04,22,01,13,4.20
2015,04,22,01,14,4.20
2015,04,22,01,15,4.20
2015,04,22,01,16,4.20
2015,04,22,01,17,4.20
2015,04,22,01,18,4.20
2015,04,22,01,19,4.20
2015,04,22,01,20,4.20
2015,04,22,01,21,4.20
2015,04,22,01,22,4.20
2015,04,22,01,23,4.20
2015,04,22,01,24,4.20
2015,04,22,01,25,4.20
2015,04,22,01,26,4.20
2015,04,22,01,27,4.20
2015,04,22,01,28,4.20
2015,04,22,01,29,4.20
2015,04,22,01,30,4.20
2015,04,22,01,31,4.20
2015,04,22,01,32,4.20
2015,04,22,01,33,4.20
2015,04,22,01,34,4.20
2015,04,22,01,35,4.20
2015,04,22,01,36,4.20
2015,04,22,01,37,4.30
2015,04,22,01,38,4.30
2015,04,22,01,39,4.30
2015,04,22,01,40,4.30
2015,04,22,01,41,4.30
2015,04,22,01,42,4.30
2015,04,22,01,43,4.30
2015,04,22,01,44,4.40
2015,04,22,01,45,4.40
2015,04,22,01,46,4.40
2015,04,22,01,47,4.40
2015,04,22,01,48,4.40
2015,04,22,01,49,4.40
2015,04,22,01,50,4.40
2015,04,22,01,51,4.50
2015,04,22,01,52,4.50
2015,04,22,01,53,4.50
2015,04,22,01,54,4.50
2015,04,22,01,55,4.50
2015,04,22,01,56,4.60
2015,04,22,01,57,4.60
2015,04,22,01,58,4.60
2015,04,22,01,59,4.60
2015,04,22,02,00,4.60
2015,04,22,02,01,4.60
2015,04,22,02,02,4.70
2015,04,22,02,03,4.70
2015,04,22,02,04,4.70
2015,04,22,02,05,4.70
2015,04,22,02,06,4.70
2015,04,22,02,07,4.70
2015,04,22,02,08,4.70
2015,04,22,02,09,4.70
2015,04,22,02,10,4.70
2015,04,22,02,11,4.70
2015,04,22,02,12,4.70
2015,04,22,02,13,4.70
2015,04,22,02,14,4.80
2015,04,22,02,15,4.80
2015,04,22,02,16,4.80
2015,04,22,02,17,4.80
2015,04,22,02,18,4.80
2015,04,22,02,19,4.80
2015,04,22,02,20,4.80
2015,04,22,02,21,4.80
2015,04,22,02,22,4.80
2015,04,22,02,23,4.80
2015,04,22,02,24,4.80
2015,04,22,02,25,4.80
2015,04,22,02,26,4.80
2015,04,22,02,27,4.80
2015,04,22,02,28,4.80
2015,04,22,02,29,4.80
2015,04,22,02,30,4.90
2015,04,22,02,31,4.90
2015,04,22,02,32,4.90
2015,04,22,02,33,4.90
2015,04,22,02,34,4.90
2015,04,22,02,35,4.90
2015,04,22,02,36,4.90
2015,04,22,02,37,4.90
2015,04,22,02,38,4.90
2015,04,22,02,39,4.90
2015,04,22,02,40,4.90
2015,04,22,02,41,4.90
2015,04,22,02,42,4.90
2015,04,22,02,43,4.90
2015,04,22,02,44,4.90
2015,04,22,02,45,4.90
2015,04,22,02,46,4.90
2015,04,22,02,47,4.90
2015,04,22,02,48,4.90
2015,04,22,02,49,4.80
2015,04,22,02,50,4.80
2015,04,22,02,51,4.80
2015,04,22,02,52,4.80
2015,04,22,02,53,4.80
2015,04,22,02,54,4.80
2015,04,22,02,55,4.80
2015,04,22,02,56,4.80
2015,04,22,02,57,4.70
2015,04,22,02,58,4.70
2015,04,22,02,59,4.70
2015,04,22,03,00,4.60
2015,04,22,03,01,4.60
2015,04,22,03,02,4.60
2015,04,22,03,03,4.50
2015,04,22,03,04,4.40
2015,04,22,03,05,4.40
2015,04,22,03,06,4.40
2015,04,22,03,07,4.40
2015,04,22,03,08,4.30
2015,04,22,03,09,4.30
2015,04,22,03,10,4.30
2015,04,22,03,11,4.30
2015,04,22,03,12,4.30
2015,04,22,03,13,4.30
2015,04,22,03,14,4.30
2015,04,22,03,15,4.30
2015,04,22,03,16,4.30
2015,04,22,03,17,4.30
2015,04,22,03,18,4.30
2015,04,22,03,19,4.30
2015,04,22,03,20,4.30
2015,04,22,03,21,4.30
2015,04,22,03,22,4.30
2015,04,22,03,23,4.30
2015,04,22,03,24,4.30
2015,04,22,03,25,4.30
2015,04,22,03,26,4.30
2015,04,22,03,27,4.30
2015,04,22,03,28,4.30
2015,04,22,03,29,4.30
2015,04,22,03,30,4.30
2015,04,22,03,31,4.30
2015,04,22,03,32,4.30
2015,04,22,03,33,4.30
2015,04,22,03,34,4.20
2015,04,22,03,35,4.30
2015,04,22,03,36,4.20
2015,04,22,03,37,4.20
2015,04,22,03,38,4.20
2015,04,22,03,39,4.20
2015,04,22,03,40,4.20
2015,04,22,03,41,4.20
2015,04,22,03,42,4.20
2015,04,22,03,43,4.20
2015,04,22,03,44,4.20
2015,04,22,03,45,4.20
2015,04,22,03,46,4.20
2015,04,22,03,47,4.20
2015,04,22,03,48,4.20
2015,04,22,03,49,4.20
2015,04,22,03,50,4.20
2015,04,22,03,51,4.20
2015,04,22,03,52,4.20
2015,04,22,03,53,4.20
2015,04,22,03,54,4.20
2015,04,22,03,55,4.20
2015,04,22,03,56,4.20
2015,04,22,03,57,4.20
2015,04,22,03,58,4.20
2015,04,22,03,59,4.10
2015,04,22,04,00,4.10
2015,04,22,04,01,4.10
2015,04,22,04,02,4.10
2015,04,22,04,03,4.10
2015,04,22,04,04,4.10
2015,04,22,04,05,4.10
2015,04,22,04,06,4.10
2015,04,22,04,07,4.10
2015,04,22,04,08,4.00
2015,04,22,04,09,4.00
2015,04,22,04,10,3.90
2015,04,22,04,11,3.90
2015,04,22,04,12,3.90
2015,04,22,04,13,3.80
2015,04,22,04,14,3.80
2015,04,22,04,15,3.80
2015,04,22,04,16,3.70
2015,04,22,04,17,3.70
2015,04,22,04,18,3.70
2015,04,22,04,19,3.70
2015,04,22,04,20,3.70
2015,04,22,04,21,3.60
2015,04,22,04,22,3.60
2015,04,22,04,23,3.60
2015,04,22,04,24,3.60
2015,04,22,04,25,3.60
2015,04,22,04,26,3.60
2015,04,22,04,27,3.60
2015,04,22,04,28,3.60
2015,04,22,04,29,3.60
2015,04,22,04,30,3.60
2015,04,22,04,31,3.60
2015,04,22,04,32,3.70
2015,04,22,04,33,3.70
2015,04,22,04,34,3.70
2015,04,22,04,35,3.70
2015,04,22,04,36,3.70
2015,04,22,04,37,3.70
2015,04,22,04,38,3.70
2015,04,22,04,39,3.70
2015,04,22,04,40,3.70
2015,04,22,04,41,3.70
2015,04,22,04,42,3.70
2015,04,22,04,43,3.70
2015,04,22,04,44,3.70
2015,04,22,04,45,3.70
2015,04,22,04,46,3.70
2015,04,22,04,47,3.70
2015,04,22,04,48,3.70
2015,04,22,04,49,3.70
2015,04,22,04,50,3.70
2015,04,22,04,51,3.70
2015,04,22,04,52,3.70
2015,04,22,04,53,3.70
2015,04,22,04,54,3.70
2015,04,22,04,55,3.70
2015,04,22,04,56,3.70
2015,04,22,04,57,3.70
2015,04,22,04,58,3.70
2015,04,22,04,59,3.70
2015,04,22,05,00,3.80
2015,04,22,05,01,3.80
2015,04,22,05,02,3.80
2015,04,22,05,03,3.80
2015,04,22,05,04,3.80
2015,04,22,05,05,3.80
2015,04,22,05,06,3.80
2015,04,22,05,07,3.80
2015,04,22,05,08,3.80
2015,04,22,05,09,3.80
2015,04,22,05,10,3.80
2015,04,22,05,11,3.80
2015,04,22,05,12,3.80
2015,04,22,05,13,3.80
2015,04,22,05,14,3.80
2015,04,22,05,15,3.80
2015,04,22,05,16,3.80
2015,04,22,05,17,3.90
2015,04,22,05,18,3.90
2015,04,22,05,19,3.90
2015,04,22,05,20,3.90
2015,04,22,05,21,3.90
2015,04,22,05,22,3.90
2015,04,22,05,23,3.90
2015,04,22,05,24,3.90
2015,04,22,05,25,3.90
2015,04,22,05,26,3.90
2015,04,22,05,27,3.90
2015,04,22,05,28,3.90
2015,04,22,05,29,3.90
2015,04,22,05,30,3.90
2015,04,22,05,31,3.90
2015,04,22,05,32,3.90
2015,04,22,05,33,4.00
2015,04,22,05,34,4.00
2015,04,22,05,35,4.00
2015,04,22,05,36,4.00
2015,04,22,05,37,4.00
2015,04,22,05,38,4.00
2015,04,22,05,39,4.00
2015,04,22,05,40,4.00
2015,04,22,05,41,4.00
2015,04,22,05,42,4.00
2015,04,22,05,43,4.10
2015,04,22,05,44,4.10
2015,04,22,05,45,4.10
2015,04,22,05,46,4.10
2015,04,22,05,47,4.10
2015,04,22,05,48,4.10
2015,04,22,05,49,4.10
2015,04,22,05,50,4.10
2015,04,22,05,51,4.10
2015,04,22,05,52,4.10
2015,04,22,05,53,4.10
2015,04,22,05,54,4.00
2015,04,22,05,55,4.00
2015,04,22,05,56,4.00
2015,04,22,05,57,4.00
2015,04,22,05,58,4.00
2015,04,22,05,59,3.90
2015,04,22,06,00,3.90
2015,04,22,06,01,3.90
2015,04,22,06,02,3.90
2015,04,22,06,03,3.90
2015,04,22,06,04,3.90
2015,04,22,06,05,3.90
2015,04,22,06,06,3.90
2015,04,22,06,07,3.90
2015,04,22,06,08,3.90
2015,04,22,06,09,3.80
2015,04,22,06,10,3.80
2015,04,22,06,11,3.80
2015,04,22,06,12,3.80
2015,04,22,06,13,3.80
2015,04,22,06,14,3.80
2015,04,22,06,15,3.80
2015,04,22,06,16,3.80
2015,04,22,06,17,3.80
2015,04,22,06,18,3.80
2015,04,22,06,19,3.80
2015,04,22,06,20,3.80
2015,04,22,06,21,3.80
2015,04,22,06,22,3.80
2015,04,22,06,23,3.80
2015,04,22,06,24,3.80
2015,04,22,06,25,3.80
2015,04,22,06,26,3.80
2015,04,22,06,27,3.80
2015,04,22,06,28,3.80
2015,04,22,06,29,3.80
2015,04,22,06,30,3.80
2015,04,22,06,31,3.80
2015,04,22,06,32,3.80
2015,04,22,06,33,3.80
2015,04,22,06,34,3.80
2015,04,22,06,35,3.80
2015,04,22,06,36,3.80
2015,04,22,06,37,3.80
2015,04,22,06,38,3.80
2015,04,22,06,39,3.80
2015,04,22,06,40,3.80
2015,04,22,06,41,3.80
2015,04,22,06,42,3.80
2015,04,22,06,43,3.80
2015,04,22,06,44,3.90
2015,04,22,06,45,3.90
2015,04,22,06,46,3.90
2015,04,22,06,47,3.90
2015,04,22,06,48,3.90
2015,04,22,06,49,3.90
2015,04,22,06,50,3.90
2015,04,22,06,51,3.90
2015,04,22,06,52,3.90
2015,04,22,06,53,3.90
2015,04,22,06,54,3.90
2015,04,22,06,55,3.90
2015,04,22,06,56,3.90
2015,04,22,06,57,3.90
2015,04,22,06,58,3.90
2015,04,22,06,59,3.90
2015,04,22,07,00,3.90
2015,04,22,07,01,3.90
2015,04,22,07,02,3.90
2015,04,22,07,03,3.90
2015,04,22,07,04,3.90
2015,04,22,07,05,3.90
2015,04,22,07,06,3.90
2015,04,22,07,07,4.00
2015,04,22,07,08,4.00
2015,04,22,07,09,4.00
2015,04,22,07,10,4.00
2015,04,22,07,11,4.00
2015,04,22,07,12,4.00
2015,04,22,07,13,4.00
2015,04,22,07,14,4.00
2015,04,22,07,15,4.00
2015,04,22,07,16,4.00
2015,04,22,07,17,4.00
2015,04,22,07,18,4.00
2015,04,22,07,19,4.00
2015,04,22,07,20,4.10
2015,04,22,07,21,4.10
2015,04,22,07,22,4.10
2015,04,22,07,23,4.10
2015,04,22,07,24,4.10
2015,04,22,07,25,4.10
2015,04,22,07,26,4.10
2015,04,22,07,27,4.10
2015,04,22,07,28,4.10
2015,04,22,07,29,4.10
2015,04,22,07,30,4.10
2015,04,22,07,31,4.10
2015,04,22,07,32,4.10
2015,04,22,07,33,4.10
2015,04,22,07,34,4.10
2015,04,22,07,35,4.10
2015,04,22,07,36,4.10
2015,04,22,07,37,4.10
2015,04,22,07,38,4.00
2015,04,22,07,39,4.00
2015,04,22,07,40,4.00
2015,04,22,07,41,4.00
2015,04,22,07,42,4.00
2015,04,22,07,43,4.00
2015,04,22,07,44,4.00
2015,04,22,07,45,4.00
2015,04,22,07,46,4.00
2015,04,22,07,47,4.00
2015,04,22,07,48,4.00
2015,04,22,07,49,4.00
2015,04,22,07,50,4.00
2015,04,22,07,51,4.00
2015,04,22,07,52,4.00
2015,04,22,07,53,4.00
2015,04,22,07,54,4.00
2015,04,22,07,55,4.00
2015,04,22,07,56,4.00
2015,04,22,07,57,4.10
2015,04,22,07,58,4.10
2015,04,22,07,59,4.10
2015,04,22,08,00,4.10
2015,04,22,08,01,4.10
2015,04,22,08,02,4.10
2015,04,22,08,03,4.10
2015,04,22,08,04,4.20
2015,04,22,08,05,4.20
2015,04,22,08,06,4.20
2015,04,22,08,07,4.20
2015,04,22,08,08,4.20
2015,04,22,08,09,4.20
2015,04,22,08,10,4.20
2015,04,22,08,11,4.20
2015,04,22,08,12,4.20
2015,04,22,08,13,4.20
2015,04,22,08,14,4.20
2015,04,22,08,15,4.20
2015,04,22,08,16,4.20
2015,04,22,08,17,4.20
2015,04,22,08,18,4.20
2015,04,22,08,19,4.20
2015,04,22,08,20,4.20
2015,04,22,08,21,4.20
2015,04,22,08,22,4.20
2015,04,22,08,23,4.30
2015,04,22,08,24,4.30
2015,04,22,08,25,4.30
2015,04,22,08,26,4.30
2015,04,22,08,27,4.30
2015,04,22,08,28,4.40
2015,04,22,08,29,4.40
2015,04,22,08,30,4.50
2015,04,22,08,31,4.60
2015,04,22,08,32,4.60
2015,04,22,08,33,4.70
2015,04,22,08,34,4.70
2015,04,22,08,35,4.70
2015,04,22,08,36,4.80
2015,04,22,08,37,4.80
2015,04,22,08,38,4.80
2015,04,22,08,39,4.80
2015,04,22,08,40,4.80
2015,04,22,08,41,4.80
2015,04,22,08,42,4.80
2015,04,22,08,43,4.80
2015,04,22,08,44,4.80
2015,04,22,08,45,4.70
2015,04,22,08,46,4.80
2015,04,22,08,47,4.80
2015,04,22,08,48,4.80
2015,04,22,08,49,4.80
2015,04,22,08,50,4.80
2015,04,22,08,51,4.80
2015,04,22,08,52,4.80
2015,04,22,08,53,4.80
2015,04,22,08,54,4.90
2015,04,22,08,55,4.90
2015,04,22,08,56,4.90
2015,04,22,08,57,5.00
2015,04,22,08,58,5.10
2015,04,22,08,59,5.10
2015,04,22,09,00,5.20
2015,04,22,09,01,5.20
2015,04,22,09,02,5.20
2015,04,22,09,03,5.20
2015,04,22,09,04,5.20
2015,04,22,09,05,5.20
2015,04,22,09,06,5.20
2015,04,22,09,07,5.10
2015,04,22,09,08,5.20
2015,04,22,09,09,5.20
2015,04,22,09,10,5.20
2015,04,22,09,11,5.20
2015,04,22,09,12,5.30
2015,04,22,09,13,5.30
2015,04,22,09,14,5.30
2015,04,22,09,15,5.30
2015,04,22,09,16,5.40
2015,04,22,09,17,5.40
2015,04,22,09,18,5.40
2015,04,22,09,19,5.50
2015,04,22,09,20,5.50
2015,04,22,09,21,5.60
2015,04,22,09,22,5.60
2015,04,22,09,23,5.50
2015,04,22,09,24,5.50
2015,04,22,09,25,5.50
2015,04,22,09,26,5.50
2015,04,22,09,27,5.40
2015,04,22,09,28,5.40
2015,04,22,09,29,5.40
2015,04,22,09,30,5.40
2015,04,22,09,31,5.40
2015,04,22,09,32,5.40
2015,04,22,09,33,5.40
2015,04,22,09,34,5.40
2015,04,22,09,35,5.40
2015,04,22,09,36,5.50
2015,04,22,09,37,5.60
2015,04,22,09,38,5.60
2015,04,22,09,39,5.70
2015,04,22,09,40,5.80
2015,04,22,09,41,5.90
2015,04,22,09,42,6.00
2015,04,22,09,43,6.10
2015,04,22,09,44,6.20
2015,04,22,09,45,6.30
2015,04,22,09,46,6.40
2015,04,22,09,47,6.50
2015,04,22,09,48,6.60
2015,04,22,09,49,6.70
2015,04,22,09,50,6.80
2015,04,22,09,51,6.80
2015,04,22,09,52,6.90
2015,04,22,09,53,6.90
2015,04,22,09,54,7.10
2015,04,22,09,55,7.10
2015,04,22,09,56,7.10
2015,04,22,09,57,7.10
2015,04,22,09,58,7.10
2015,04,22,09,59,7.10
2015,04,22,10,00,7.10
2015,04,22,10,01,7.10
2015,04,22,10,02,7.10
2015,04,22,10,03,7.20
2015,04,22,10,04,7.20
2015,04,22,10,05,7.30
2015,04,22,10,06,7.50
2015,04,22,10,07,7.60
2015,04,22,10,08,7.70
2015,04,22,10,09,7.80
2015,04,22,10,10,7.90
2015,04,22,10,11,8.00
2015,04,22,10,12,8.10
2015,04,22,10,13,8.10
2015,04,22,10,14,8.20
2015,04,22,10,15,8.20
2015,04,22,10,16,8.20
2015,04,22,10,17,8.20
2015,04,22,10,18,8.30
2015,04,22,10,19,8.30
2015,04,22,10,20,8.20
2015,04,22,10,21,8.30
2015,04,22,10,22,8.30
2015,04,22,10,23,8.30
2015,04,22,10,24,8.40
2015,04,22,10,25,8.40
2015,04,22,10,26,8.40
2015,04,22,10,27,8.50
2015,04,22,10,28,8.60
2015,04,22,10,29,8.60
2015,04,22,10,30,8.60
2015,04,22,10,31,8.70
2015,04,22,10,32,8.70
2015,04,22,10,33,8.70
2015,04,22,10,34,8.80
2015,04,22,10,35,8.80
2015,04,22,10,36,8.80
2015,04,22,10,37,8.90
2015,04,22,10,38,8.90
2015,04,22,10,39,9.00
2015,04,22,10,40,9.00
2015,04,22,10,41,8.90
2015,04,22,10,42,8.90
2015,04,22,10,43,9.00
2015,04,22,10,44,9.10
2015,04,22,10,45,9.10
2015,04,22,10,46,9.10
2015,04,22,10,47,9.10
2015,04,22,10,48,9.20
2015,04,22,10,49,9.20
2015,04,22,10,50,9.30
2015,04,22,10,51,9.30
2015,04,22,10,52,9.30
2015,04,22,10,53,9.40
2015,04,22,10,54,9.30
2015,04,22,10,55,9.30
2015,04,22,10,56,9.30
2015,04,22,10,57,9.40
2015,04,22,10,58,9.40
2015,04,22,10,59,9.40
2015,04,22,11,00,9.50
2015,04,22,11,01,9.60
2015,04,22,11,02,9.70
2015,04,22,11,03,9.70
2015,04,22,11,04,9.70
2015,04,22,11,05,9.80
2015,04,22,11,06,9.80
2015,04,22,11,07,9.80
2015,04,22,11,08,9.80
2015,04,22,11,09,9.90
2015,04,22,11,10,9.90
2015,04,22,11,11,9.90
2015,04,22,11,12,9.90
2015,04,22,11,13,9.90
2015,04,22,11,14,10.00
2015,04,22,11,15,10.10
2015,04,22,11,16,10.10
2015,04,22,11,17,10.20
2015,04,22,11,18,10.10
2015,04,22,11,19,10.20
2015,04,22,11,20,10.20
2015,04,22,11,21,10.20
2015,04,22,11,22,10.30
2015,04,22,11,23,10.30
2015,04,22,11,24,10.40
2015,04,22,11,25,10.40
2015,04,22,11,26,10.50
2015,04,22,11,27,10.50
2015,04,22,11,28,10.60
2015,04,22,11,29,10.70
2015,04,22,11,30,10.70
2015,04,22,11,31,10.80
2015,04,22,11,32,10.80
2015,04,22,11,33,10.80
2015,04,22,11,34,10.80
2015,04,22,11,35,10.80
2015,04,22,11,36,10.80
2015,04,22,11,37,10.70
2015,04,22,11,38,10.70
2015,04,22,11,39,10.70
2015,04,22,11,40,10.80
2015,04,22,11,41,10.80
2015,04,22,11,42,10.90
2015,04,22,11,43,10.90
2015,04,22,11,44,10.90
2015,04,22,11,45,10.90
2015,04,22,11,46,10.90
2015,04,22,11,47,11.10
2015,04,22,11,48,11.20
2015,04,22,11,49,11.20
2015,04,22,11,50,11.30
2015,04,22,11,51,11.30
2015,04,22,11,52,11.40
2015,04,22,11,53,11.50
2015,04,22,11,54,11.60
2015,04,22,11,55,11.70
2015,04,22,11,56,11.70
2015,04,22,11,57,11.80
2015,04,22,11,58,11.90
2015,04,22,11,59,11.90
2015,04,22,12,00,12.00
2015,04,22,12,01,12.10
2015,04,22,12,02,12.10
2015,04,22,12,03,12.20
2015,04,22,12,04,12.30
2015,04,22,12,05,12.40
2015,04,22,12,06,12.40
2015,04,22,12,07,12.50
2015,04,22,12,08,12.60
2015,04,22,12,09,12.60
2015,04,22,12,10,12.60
2015,04,22,12,11,12.60
2015,04,22,12,12,12.60
2015,04,22,12,13,12.50
2015,04,22,12,14,12.40
2015,04,22,12,15,12.40
2015,04,22,12,16,12.40
2015,04,22,12,17,12.40
2015,04,22,12,18,12.30
2015,04,22,12,19,12.30
2015,04,22,12,20,12.40
2015,04,22,12,21,12.50
2015,04,22,12,22,12.60
2015,04,22,12,23,12.70
2015,04,22,12,24,12.70
2015,04,22,12,25,12.80
2015,04,22,12,26,12.80
2015,04,22,12,27,12.90
2015,04,22,12,28,12.90
2015,04,22,12,29,13.00
2015,04,22,12,30,13.00
2015,04,22,12,31,13.10
2015,04,22,12,32,13.20
2015,04,22,12,33,13.20
2015,04,22,12,34,13.30
2015,04,22,12,35,13.40
2015,04,22,12,36,13.50
2015,04,22,12,37,13.60
2015,04,22,12,38,13.70
2015,04,22,12,39,13.80
2015,04,22,12,40,13.90
2015,04,22,12,41,14.10
2015,04,22,12,42,14.10
2015,04,22,12,43,14.20
2015,04,22,12,44,14.20
2015,04,22,12,45,14.20
2015,04,22,12,46,14.30
2015,04,22,12,47,14.30
2015,04,22,12,48,14.30
2015,04,22,12,49,14.40
2015,04,22,12,50,14.40
2015,04,22,12,51,14.40
2015,04,22,12,52,14.50
2015,04,22,12,53,14.60
2015,04,22,12,54,14.70
2015,04,22,12,55,14.70
2015,04,22,12,56,14.80
2015,04,22,12,57,14.80
2015,04,22,12,58,14.90
2015,04,22,12,59,14.90
2015,04,22,13,00,15.00
2015,04,22,13,01,15.10
2015,04,22,13,02,15.10
2015,04,22,13,03,15.10
2015,04,22,13,04,15.10
2015,04,22,13,05,15.10
2015,04,22,13,06,14.90
2015,04,22,13,07,14.80
2015,04,22,13,08,14.60
2015,04,22,13,09,14.40
2015,04,22,13,10,14.30
2015,04,22,13,11,14.20
2015,04,22,13,12,14.00
2015,04,22,13,13,14.00
2015,04,22,13,14,13.90
2015,04,22,13,15,13.90
2015,04,22,13,16,13.90
2015,04,22,13,17,13.90
2015,04,22,13,18,13.90
2015,04,22,13,19,13.90
2015,04,22,13,20,14.00
2015,04,22,13,21,14.00
2015,04,22,13,22,14.00
2015,04,22,13,23,14.00
2015,04,22,13,24,14.00
2015,04,22,13,25,14.00
2015,04,22,13,26,13.90
2015,04,22,13,27,13.80
2015,04,22,13,28,13.80
2015,04,22,13,29,13.80
2015,04,22,13,30,13.90
2015,04,22,13,31,13.90
2015,04,22,13,32,13.90
2015,04,22,13,33,14.00
2015,04,22,13,34,14.10
2015,04,22,13,35,14.10
2015,04,22,13,36,14.20
2015,04,22,13,37,14.30
2015,04,22,13,38,14.30
2015,04,22,13,39,14.30
2015,04,22,13,40,14.30
2015,04,22,13,41,14.30
2015,04,22,13,42,14.30
2015,04,22,13,43,14.30
2015,04,22,13,44,14.40
2015,04,22,13,45,14.50
2015,04,22,13,46,14.60
2015,04,22,13,47,14.60
2015,04,22,13,48,14.60
2015,04,22,13,49,14.70
2015,04,22,13,50,14.70
2015,04,22,13,51,14.80
2015,04,22,13,52,14.90
2015,04,22,13,53,14.90
2015,04,22,13,54,15.00
2015,04,22,13,55,15.10
2015,04,22,13,56,15.10
2015,04,22,13,57,15.20
2015,04,22,13,58,15.10
2015,04,22,13,59,15.00
2015,04,22,14,00,14.90
2015,04,22,14,01,14.80
2015,04,22,14,02,14.70
2015,04,22,14,03,14.60
2015,04,22,14,04,14.50
2015,04,22,14,05,14.40
2015,04,22,14,06,14.30
2015,04,22,14,07,14.30
2015,04,22,14,08,14.20
2015,04,22,14,09,14.20
2015,04,22,14,10,14.30
2015,04,22,14,11,14.30
2015,04,22,14,12,14.30
2015,04,22,14,13,14.30
2015,04,22,14,14,14.30
2015,04,22,14,15,14.30
2015,04,22,14,16,14.30
2015,04,22,14,17,14.30
2015,04,22,14,18,14.20
2015,04,22,14,19,14.20
2015,04,22,14,20,14.20
2015,04,22,14,21,14.20
2015,04,22,14,22,14.30
2015,04,22,14,23,14.30
2015,04,22,14,24,14.40
2015,04,22,14,25,14.40
2015,04,22,14,26,14.50
2015,04,22,14,27,14.50
2015,04,22,14,28,14.60
2015,04,22,14,29,14.60
2015,04,22,14,30,14.60
2015,04,22,14,31,14.70
2015,04,22,14,32,14.70
2015,04,22,14,33,14.70
2015,04,22,14,34,14.80
2015,04,22,14,35,14.70
2015,04,22,14,36,14.60
2015,04,22,14,37,14.40
2015,04,22,14,38,14.20
2015,04,22,14,39,14.00
2015,04,22,14,40,13.80
2015,04,22,14,41,13.70
2015,04,22,14,42,13.70
2015,04,22,14,43,13.70
2015,04,22,14,44,13.70
2015,04,22,14,45,13.70
2015,04,22,14,46,13.70
2015,04,22,14,47,13.70
2015,04,22,14,48,13.70
2015,04,22,14,49,13.60
2015,04,22,14,50,13.60
2015,04,22,14,51,13.50
2015,04,22,14,52,13.50
2015,04,22,14,53,13.50
2015,04,22,14,54,13.50
2015,04,22,14,55,13.60
2015,04,22,14,56,13.60
2015,04,22,14,57,13.60
2015,04,22,14,58,13.60
2015,04,22,14,59,13.60
2015,04,22,15,00,13.60
2015,04,22,15,01,13.70
2015,04,22,15,02,13.70
2015,04,22,15,03,13.70
2015,04,22,15,04,13.60
2015,04,22,15,05,13.60
2015,04,22,15,06,13.60
2015,04,22,15,07,13.60
2015,04,22,15,08,13.60
2015,04,22,15,09,13.60
2015,04,22,15,10,13.60
2015,04,22,15,11,13.60
2015,04,22,15,12,13.60
2015,04,22,15,13,13.50
2015,04,22,15,14,13.40
2015,04,22,15,15,13.30
2015,04,22,15,16,13.20
2015,04,22,15,17,13.20
2015,04,22,15,18,13.20
2015,04,22,15,19,13.20
2015,04,22,15,20,13.20
2015,04,22,15,21,13.30
2015,04,22,15,22,13.30
2015,04,22,15,23,13.30
2015,04,22,15,24,13.40
2015,04,22,15,25,13.40
2015,04,22,15,26,13.40
2015,04,22,15,27,13.40
2015,04,22,15,28,13.40
2015,04,22,15,29,13.40
2015,04,22,15,30,13.40
2015,04,22,15,31,13.40
2015,04,22,15,32,13.40
2015,04,22,15,33,13.40
2015,04,22,15,34,13.40
2015,04,22,15,35,13.40
2015,04,22,15,36,13.30
2015,04,22,15,37,13.20
2015,04,22,15,38,13.10
2015,04,22,15,39,13.00
2015,04,22,15,40,12.90
2015,04,22,15,41,12.80
2015,04,22,15,42,12.80
2015,04,22,15,43,12.70
2015,04,22,15,44,12.70
2015,04,22,15,45,12.70
2015,04,22,15,46,12.70
2015,04,22,15,47,12.60
2015,04,22,15,48,12.60
2015,04,22,15,49,12.50
2015,04,22,15,50,12.50
2015,04,22,15,51,12.40
2015,04,22,15,52,12.50
2015,04,22,15,53,12.50
2015,04,22,15,54,12.60
2015,04,22,15,55,12.60
2015,04,22,15,56,12.60
2015,04,22,15,57,12.70
2015,04,22,15,58,12.70
2015,04,22,15,59,12.80
2015,04,22,16,00,12.80
2015,04,22,16,01,12.80
2015,04,22,16,02,12.90
2015,04,22,16,03,12.80
2015,04,22,16,04,12.70
2015,04,22,16,05,12.70
2015,04,22,16,06,12.60
2015,04,22,16,07,12.60
2015,04,22,16,08,12.60
2015,04,22,16,09,12.50
2015,04,22,16,10,12.40
2015,04,22,16,11,12.40
2015,04,22,16,12,12.30
2015,04,22,16,13,12.30
2015,04,22,16,14,12.30
2015,04,22,16,15,12.30
2015,04,22,16,16,12.30
2015,04,22,16,17,12.30
2015,04,22,16,18,12.20
2015,04,22,16,19,12.20
2015,04,22,16,20,12.20
2015,04,22,16,21,12.10
2015,04,22,16,22,12.10
2015,04,22,16,23,12.10
2015,04,22,16,24,12.00
2015,04,22,16,25,12.10
2015,04,22,16,26,12.10
2015,04,22,16,27,12.10
2015,04,22,16,28,12.10
2015,04,22,16,29,12.10
2015,04,22,16,30,12.10
2015,04,22,16,31,12.10
2015,04,22,16,32,12.00
2015,04,22,16,33,12.00
2015,04,22,16,34,12.00
2015,04,22,16,35,11.90
2015,04,22,16,36,12.00
2015,04,22,16,37,11.90
2015,04,22,16,38,12.00
2015,04,22,16,39,12.00
2015,04,22,16,40,12.10
2015,04,22,16,41,12.10
2015,04,22,16,42,12.10
2015,04,22,16,43,12.20
2015,04,22,16,44,12.20
2015,04,22,16,45,12.20
2015,04,22,16,46,12.20
2015,04,22,16,47,12.20
2015,04,22,16,48,12.20
2015,04,22,16,49,12.10
2015,04,22,16,50,12.10
2015,04,22,16,51,12.10
2015,04,22,16,52,12.10
2015,04,22,16,53,12.10
2015,04,22,16,54,12.10
2015,04,22,16,55,12.10
2015,04,22,16,56,12.10
2015,04,22,16,57,12.10
2015,04,22,16,58,12.10
2015,04,22,16,59,12.10
2015,04,22,17,00,12.10
2015,04,22,17,01,12.10
2015,04,22,17,02,12.10
2015,04,22,17,03,12.10
2015,04,22,17,04,12.10
2015,04,22,17,05,12.10
2015,04,22,17,06,12.10
2015,04,22,17,07,12.20
2015,04,22,17,08,12.20
2015,04,22,17,09,12.20
2015,04,22,17,10,12.10
2015,04,22,17,11,12.10
2015,04,22,17,12,12.20
2015,04,22,17,13,12.20
2015,04,22,17,14,12.20
2015,04,22,17,15,12.20
2015,04,22,17,16,12.20
2015,04,22,17,17,12.20
2015,04,22,17,18,12.20
2015,04,22,17,19,12.20
2015,04,22,17,20,12.20
2015,04,22,17,21,12.20
2015,04,22,17,22,12.20
2015,04,22,17,23,12.20
2015,04,22,17,24,12.20
2015,04,22,17,25,12.20
2015,04,22,17,26,12.30
2015,04,22,17,27,12.20
2015,04,22,17,28,12.20
2015,04,22,17,29,12.10
2015,04,22,17,30,11.90
2015,04,22,17,31,11.90
2015,04,22,17,32,11.90
2015,04,22,17,33,11.90
2015,04,22,17,34,11.80
2015,04,22,17,35,11.80
2015,04,22,17,36,11.80
2015,04,22,17,37,11.70
2015,04,22,17,38,11.60
2015,04,22,17,39,11.50
2015,04,22,17,40,11.40
2015,04,22,17,41,11.40
2015,04,22,17,42,11.50
2015,04,22,17,43,11.50
2015,04,22,17,44,11.50
2015,04,22,17,45,11.50
2015,04,22,17,46,11.50
2015,04,22,17,47,11.50
2015,04,22,17,48,11.40